Weather History for St. Louis, MO

Change the Weather History Date:

Tuesday, June 10, 2014

  Actual Average Record
Temperature  
Mean Temperature 72 °F 75 °F  
Max Temperature 80 °F 84 °F 100 °F (1953)
Min Temperature 64 °F 65 °F 48 °F (1972)
Degree Days  
Heating Degree Days 0 0  
Month to date heating degree days 0 3  
Since 1 June heating degree days 0 3  
Since 1 July heating degree days 5027 4533  
Cooling Degree Days 7 10  
Month to date cooling degree days 103 84  
Year to date cooling degree days 365 258  
Since 1 June cooling degree days 103 84  
Growing Degree Days 22 (Base 50)    
Moisture  
Dew Point 64 °F    
Average Humidity 78    
Maximum Humidity 93    
Minimum Humidity 62    
Precipitation  
Precipitation 0.43 in 0.15 in 2.68 in (2003)
Month to date precipitation 2.86 1.54  
Year to date precipitation 19.92 17.91  
Snow  
Snow 0.00 in 0.00 in 0.00 in (2012)
Month to date snowfall 0.0 0.0  
Since 1 June snowfall 0.0 0.0  
Since 1 July snowfall 28.8 17.7  
Snow Depth 0.00 in    
Sea Level Pressure  
Sea Level Pressure 29.72 in    
Wind  
Wind Speed 8 mph (SE)    
Max Wind Speed 21 mph    
Max Gust Speed 24 mph    
Visibility 7 miles    
Events Rain , Thunderstorm    
T = Trace of Precipitation, MM = Missing Value Source: NWS Daily Summary

Daily Weather History Graph

Daily Weather History Graph

Search for Another Location

Airport:

Trip Planner

Search our weather history database for the weather conditions in past years. The results will help you decide how hot, cold, wet, or windy it might be!

Date:

Astronomy

Jun. 10, 2014 Rise Set
Actual Time 5:36 AM CDT 8:25 PM CDT
Civil Twilight 5:04 AM CDT 8:57 PM CDT
Nautical Twilight 4:24 AM CDT 9:37 PM CDT
Astronomical Twilight 3:38 AM CDT 10:23 PM CDT
Moon 5:52 PM CDT (6/10) 3:40 AM CDT (6/10)
Length of Visible Light 15h 53m
Length of Day
14h 49m
Waxing Gibbous, 92% of the Moon is Illuminated
Jun 10
Waxing Gibbous
Jun 12
Full
Jun 19
Last Quarter
Jun 27
New
Jul 5
First Quarter

Hourly Weather History & Observations

Time (CDT) Temp. Heat Index Dew Point Humidity Pressure Visibility Wind Dir Wind Speed Gust Speed Precip Events Conditions
12:33 AM 64.4 °F - 62.6 °F 94% 29.75 in 3.0 mi East 15.0 mph 24.2 mph 0.03 in Rain Light Rain
12:51 AM 64.9 °F - 62.1 °F 90% 29.72 in 5.0 mi East 15.0 mph - 0.04 in Rain Light Rain
1:00 AM 64.4 °F - 62.6 °F 94% 29.74 in 2.0 mi East 13.8 mph - 0.00 in Rain Light Rain
1:22 AM 64.4 °F - 62.6 °F 94% 29.73 in 3.0 mi East 11.5 mph - 0.03 in Rain Light Rain
1:37 AM 64.4 °F - 62.6 °F 94% 29.73 in 5.0 mi East 12.7 mph - 0.03 in   Light Drizzle
1:51 AM 64.9 °F - 62.1 °F 90% 29.70 in 5.0 mi East 15.0 mph - 0.04 in   Light Drizzle
2:26 AM 64.4 °F - 62.6 °F 94% 29.72 in 2.5 mi East 11.5 mph - 0.00 in Rain Light Rain
2:35 AM 64.4 °F - 62.6 °F 94% 29.72 in 4.0 mi East 11.5 mph - 0.00 in Rain Light Rain
2:44 AM 64.4 °F - 62.6 °F 94% 29.72 in 5.0 mi East 11.5 mph - 0.00 in   Light Drizzle
2:51 AM 66.0 °F - 63.0 °F 90% 29.69 in 5.0 mi East 10.4 mph - 0.00 in   Light Drizzle
3:34 AM 66.2 °F - 64.4 °F 94% 29.72 in 4.0 mi ESE 5.8 mph - 0.00 in   Overcast
3:51 AM 66.9 °F - 64.0 °F 90% 29.69 in 3.0 mi ESE 5.8 mph - 0.00 in   Overcast
4:51 AM 68.0 °F - 64.9 °F 90% 29.70 in 3.0 mi SE 4.6 mph - N/A   Overcast
4:56 AM 68.0 °F - 64.4 °F 88% 29.72 in 4.0 mi SSE 5.8 mph - N/A   Overcast
5:23 AM 69.8 °F - 66.2 °F 88% 29.72 in 6.0 mi SE 8.1 mph - N/A   Overcast
5:48 AM 69.8 °F - 64.4 °F 83% 29.73 in 6.0 mi SE 9.2 mph - N/A   Overcast
5:51 AM 69.1 °F - 64.9 °F 87% 29.71 in 5.0 mi SE 9.2 mph - N/A   Overcast
6:09 AM 69.8 °F - 66.2 °F 88% 29.73 in 5.0 mi SE 6.9 mph - N/A   Overcast
6:40 AM 69.8 °F - 66.2 °F 88% 29.74 in 5.0 mi SE 6.9 mph - N/A   Overcast
6:51 AM 69.1 °F - 64.9 °F 87% 29.72 in 6.0 mi SE 9.2 mph - N/A   Mostly Cloudy
7:07 AM 69.8 °F - 66.2 °F 88% 29.74 in 7.0 mi SSE 6.9 mph - N/A   Mostly Cloudy
7:26 AM 69.8 °F - 64.4 °F 83% 29.73 in 9.0 mi SE 6.9 mph - N/A   Mostly Cloudy
7:51 AM 71.6 °F - 66.2 °F 83% 29.74 in 9.0 mi SSE 5.8 mph - N/A   Mostly Cloudy
7:58 AM 69.8 °F - 64.4 °F 83% 29.74 in 9.0 mi SSE 6.9 mph - N/A   Mostly Cloudy
8:09 AM 71.6 °F - 66.2 °F 83% 29.74 in 9.0 mi SSE 6.9 mph - N/A   Mostly Cloudy
8:48 AM 71.6 °F - 66.2 °F 83% 29.75 in 10.0 mi South 5.8 mph - N/A   Mostly Cloudy
8:51 AM 72.0 °F - 66.0 °F 81% 29.73 in 10.0 mi South 5.8 mph - N/A   Mostly Cloudy
9:10 AM 71.6 °F - 64.4 °F 78% 29.76 in 10.0 mi South 4.6 mph - N/A   Overcast
9:47 AM 73.4 °F - 64.4 °F 73% 29.75 in 10.0 mi South 6.9 mph - N/A   Mostly Cloudy
9:51 AM 73.0 °F - 66.0 °F 79% 29.73 in 10.0 mi SSE 10.4 mph - N/A   Mostly Cloudy
10:19 AM 73.4 °F - 66.2 °F 78% 29.75 in 10.0 mi SSE 3.5 mph - N/A   Mostly Cloudy
10:41 AM 73.4 °F - 64.4 °F 73% 29.75 in 10.0 mi South 5.8 mph - N/A   Mostly Cloudy
10:51 AM 75.0 °F - 66.0 °F 73% 29.73 in 10.0 mi South 6.9 mph - N/A   Mostly Cloudy
10:58 AM 75.2 °F - 66.2 °F 73% 29.74 in 10.0 mi SSE 4.6 mph - N/A   Mostly Cloudy
12:10 PM 77.0 °F - 66.2 °F 69% 29.74 in 10.0 mi ESE 5.8 mph - 0.00 in   Mostly Cloudy
12:51 PM 78.8 °F - 66.2 °F 65% 29.73 in 10.0 mi ESE 5.8 mph - N/A   Mostly Cloudy
1:51 PM 80.6 °F 82.7 °F 66.2 °F 61% 29.69 in 10.0 mi East 10.4 mph 16.1 mph N/A   Mostly Cloudy
2:51 PM 78.1 °F - 66.9 °F 68% 29.65 in 10.0 mi ESE 13.8 mph - N/A   Mostly Cloudy
3:51 PM 77.0 °F - 66.9 °F 71% 29.66 in 10.0 mi ESE 10.4 mph - 0.00 in   Mostly Cloudy
4:08 PM 71.6 °F - 60.8 °F 69% 29.70 in 9.0 mi West 15.0 mph 20.7 mph N/A   Mostly Cloudy
4:45 PM 68.0 °F - 62.6 °F 83% 29.71 in 5.0 mi WNW 12.7 mph - 0.00 in Rain , Thunderstorm Light Thunderstorms and Rain
4:51 PM 66.9 °F - 63.0 °F 87% 29.69 in 3.0 mi WNW 10.4 mph - 0.01 in Rain , Thunderstorm Light Thunderstorms and Rain
5:01 PM 66.2 °F - 62.6 °F 88% 29.72 in 5.0 mi West 11.5 mph - 0.06 in Rain , Thunderstorm Light Thunderstorms and Rain
5:21 PM 66.2 °F - 62.6 °F 88% 29.72 in 4.0 mi NW 5.8 mph - 0.19 in Rain , Thunderstorm Light Thunderstorms and Rain
5:29 PM 66.2 °F - 62.6 °F 88% 29.72 in 6.0 mi WNW 3.5 mph - 0.21 in Rain Light Rain
5:51 PM 66.0 °F - 62.1 °F 87% 29.69 in 5.0 mi NNW 8.1 mph - 0.24 in Rain Light Rain
5:55 PM 66.2 °F - 62.6 °F 88% 29.71 in 5.0 mi NW 6.9 mph - 0.01 in Rain , Thunderstorm Light Thunderstorms and Rain
6:23 PM 66.2 °F - 62.6 °F 88% 29.72 in 6.0 mi North 3.5 mph - 0.11 in Rain Light Rain
6:51 PM 66.9 °F - 63.0 °F 87% 29.70 in 9.0 mi NNE 6.9 mph - 0.14 in Rain Light Rain
7:04 PM 66.2 °F - 64.4 °F 94% 29.72 in 9.0 mi ESE 3.5 mph - 0.00 in Rain Light Rain
7:51 PM 66.9 °F - 63.0 °F 87% 29.68 in 10.0 mi NE 6.9 mph - 0.00 in   Mostly Cloudy
8:51 PM 66.0 °F - 62.1 °F 87% 29.69 in 10.0 mi ENE 4.6 mph - N/A   Overcast
9:51 PM 66.2 °F - 62.6 °F 88% 29.72 in 10.0 mi NW 4.6 mph - N/A   Mostly Cloudy
10:51 PM 66.0 °F - 62.1 °F 87% 29.70 in 10.0 mi West 4.6 mph - N/A   Mostly Cloudy
11:51 PM 64.9 °F - 62.1 °F 90% 29.69 in 10.0 mi WSW 6.9 mph - N/A   Mostly Cloudy
11:55 PM 64.4 °F - 62.6 °F 94% 29.72 in 10.0 mi WSW 6.9 mph - N/A   Mostly Cloudy